McCook, NE

10:16 PM CDT on July 29, 2016 (GMT -0500)
McCook Municipal

Weather History for KMCK - July, 2013

Change the Weather History Date:

Thursday, July 18, 2013

  Actual Average Record
Temperature  
Mean Temperature 81 °F 76 °F  
Max Temperature 94 °F 90 °F 108 °F (1925)
Min Temperature 67 °F 62 °F 53 °F (1992)
Cooling Degree Days 16    
Growing Degree Days 30 (Base 50)    
Moisture  
Dew Point 61 °F    
Average Humidity 54    
Maximum Humidity 87    
Minimum Humidity 32    
Precipitation  
Precipitation 0.00 in 0.10 in 2.03 in (1981)
Month to date precipitation 1.31 1.91  
Year to date precipitation 7.30 13.23  
Sea Level Pressure  
Sea Level Pressure 29.99 in    
Wind  
Wind Speed 13 mph (South)    
Max Wind Speed 24 mph    
Max Gust Speed 40 mph    
Visibility 10 miles    
Events      
T = Trace of Precipitation, MM = Missing Value Source: NWS Daily Summary

Daily Weather History Graph

Daily Weather History Graph

Search for Another Location

Airport or City:

Trip Planner

Search our weather history database for the weather conditions in past years. The results will help you decide how hot, cold, wet, or windy it might be!

Date:

Astronomy

Jul. 18, 2013 Rise Set
Actual Time 6:28 AM CDT 9:08 PM CDT
Civil Twilight 5:56 AM CDT 9:40 PM CDT
Nautical Twilight 5:16 AM CDT 10:19 PM CDT
Astronomical Twilight 4:31 AM CDT 11:04 PM CDT
Moon 5:07 PM CDT (7/18) 2:19 AM CDT (7/18)
Length of Visible Light 15h 43m
Length of Day
14h 40m
Waxing Gibbous, 77% of the Moon is Illuminated
Jul 18
Waxing Gibbous
Jul 22
Full
Jul 29
Last Quarter
Aug 6
New
Aug 14
First Quarter

Hourly Weather History & Observations

Time (CDT) Temp. Heat Index Dew Point Humidity Pressure Visibility Wind Dir Wind Speed Gust Speed Precip Events Conditions
12:53 AM 75.0 °F - 62.1 °F 64% 30.12 in 10.0 mi South 12.7 mph - N/A   Clear
1:53 AM 73.9 °F - 62.1 °F 66% 30.12 in 10.0 mi South 10.4 mph - N/A   Clear
2:53 AM 72.0 °F - 62.1 °F 71% 30.10 in 10.0 mi Variable 6.9 mph - N/A   Clear
3:53 AM 70.0 °F - 62.1 °F 76% 30.09 in 10.0 mi South 9.2 mph - N/A   Clear
4:53 AM 69.1 °F - 63.0 °F 81% 30.08 in 10.0 mi South 8.1 mph - N/A   Clear
5:53 AM 69.1 °F - 64.0 °F 84% 30.07 in 10.0 mi South 6.9 mph - N/A   Clear
6:53 AM 68.0 °F - 64.0 °F 87% 30.07 in 10.0 mi South 4.6 mph - N/A   Clear
7:53 AM 70.0 °F - 64.0 °F 81% 30.07 in 10.0 mi South 8.1 mph - N/A   Clear
8:53 AM 75.0 °F - 64.9 °F 71% 30.06 in 10.0 mi South 11.5 mph - N/A   Clear
9:53 AM 79.0 °F - 63.0 °F 58% 30.06 in 10.0 mi SSW 18.4 mph 28.8 mph N/A   Clear
10:53 AM 82.0 °F 83.0 °F 62.1 °F 51% 30.05 in 10.0 mi SSW 19.6 mph 26.5 mph N/A   Partly Cloudy
11:53 AM 84.9 °F 85.4 °F 62.1 °F 46% 30.03 in 10.0 mi South 21.9 mph 28.8 mph N/A   Clear
12:53 PM 88.0 °F 88.4 °F 62.1 °F 42% 29.99 in 10.0 mi SSW 18.4 mph 28.8 mph N/A   Clear
1:53 PM 91.0 °F 90.5 °F 60.1 °F 35% 29.97 in 10.0 mi SSW 20.7 mph 31.1 mph N/A   Clear
2:53 PM 91.9 °F 91.2 °F 59.0 °F 33% 29.95 in 10.0 mi South 21.9 mph 40.3 mph N/A   Clear
3:53 PM 93.0 °F 92.3 °F 59.0 °F 32% 29.92 in 10.0 mi South 24.2 mph 29.9 mph N/A   Clear
4:53 PM 93.0 °F 92.3 °F 59.0 °F 32% 29.91 in 10.0 mi South 19.6 mph 31.1 mph N/A   Clear
5:53 PM 93.9 °F 93.6 °F 60.1 °F 32% 29.88 in 10.0 mi South 15.0 mph 24.2 mph N/A   Clear
6:53 PM 91.9 °F 91.2 °F 59.0 °F 33% 29.87 in 10.0 mi SSW 13.8 mph 21.9 mph N/A   Clear
7:53 PM 91.0 °F 90.2 °F 59.0 °F 34% 29.86 in 10.0 mi South 17.3 mph 25.3 mph N/A   Clear
8:53 PM 88.0 °F 87.1 °F 59.0 °F 37% 29.86 in 10.0 mi South 13.8 mph - N/A   Clear
9:53 PM 82.9 °F 83.2 °F 60.1 °F 46% 29.89 in 10.0 mi South 10.4 mph - N/A   Clear
10:53 PM 82.0 °F 82.4 °F 60.1 °F 47% 29.91 in 10.0 mi South 9.2 mph - N/A   Clear
11:53 PM 79.0 °F - 60.1 °F 52% 29.92 in 10.0 mi South 10.4 mph - N/A   Clear